Location: Newark
(49.8822°N, 3.1064°E)
Time: 10:08:34
(UTC+00:00)

Envisat - Visible Passes

Search period start: 20 January 2020 00:00
Search period end: 30 January 2020 00:00
Orbit: 764 x 766 km, 98.1° (Epoch: 20 January)

Date Brightness Start Highest point End Pass type
(mag) Time Alt. Az. Time Alt. Az. Time Alt. Az.
20 Jan 4.7 05:58:04 10° NNE 06:02:47 37° E 06:07:28 10° SSE visible
20 Jan 2.9 17:16:52 10° SSE 17:21:56 75° ENE 17:27:02 10° N visible
20 Jan 5.8 18:58:12 10° SW 19:01:32 17° W 19:04:53 10° NW visible
21 Jan 5.8 05:22:05 10° NE 05:25:39 19° E 05:29:12 10° SE visible
21 Jan 4.7 18:19:46 10° SSW 18:24:23 34° W 18:29:01 10° NNW visible
22 Jan 3.7 06:23:21 10° NNE 06:28:24 60° E 06:33:25 10° S visible
22 Jan 3.4 17:42:22 10° S 17:47:25 69° WSW 17:52:32 10° NNW visible
22 Jan 6.4 19:26:53 10° W 19:27:25 10° W 19:27:57 10° WNW visible
23 Jan 5.1 05:46:56 10° NNE 05:51:25 30° E 05:55:51 10° SSE visible
23 Jan 3.0 17:05:40 10° SSE 17:10:40 61° ENE 17:15:42 10° N visible
23 Jan 5.6 18:46:16 10° SW 18:50:06 21° W 18:53:58 10° NW visible
24 Jan 6.1 05:11:16 10° NE 05:14:13 15° E 05:17:09 10° ESE visible
24 Jan 3.0 06:48:48 10° NNE 06:53:55 84° WNW 06:59:00 10° SSW visible
24 Jan 4.4 18:08:12 10° SSW 18:13:01 42° W 18:17:51 10° NNW visible
25 Jan 4.1 06:12:07 10° NNE 06:17:04 49° E 06:21:59 10° S visible
25 Jan 3.1 17:31:02 10° SSE 17:36:06 84° WSW 17:41:15 10° NNW visible
25 Jan 6.2 19:13:39 10° WSW 19:15:56 13° W 19:18:14 10° WNW visible
26 Jan 5.4 05:35:51 10° NE 05:40:01 25° E 05:44:09 10° SSE visible
26 Jan 5.3 18:34:29 10° SSW 18:38:42 26° W 18:42:57 10° NW visible
27 Jan 6.3 05:00:44 10° ENE 05:02:45 12° E 05:04:47 10° ESE visible
27 Jan 3.2 06:37:30 10° NNE 06:42:38 80° ESE 06:47:42 10° SSW visible
27 Jan 3.9 17:56:43 10° S 18:01:40 51° W 18:06:38 10° NNW visible
28 Jan 4.5 06:00:55 10° NNE 06:05:43 40° E 06:10:28 10° SSE visible
28 Jan 3.0 17:19:45 10° SSE 17:24:49 80° ENE 17:29:56 10° NNW visible
28 Jan 6.0 19:01:24 10° SW 19:04:29 16° W 19:07:36 10° NW visible
29 Jan 5.8 05:24:51 10° NE 05:28:36 20° E 05:32:20 10° SE visible
29 Jan 4.9 18:22:47 10° SSW 18:27:18 32° W 18:31:51 10° NNW visible
